EW6456 Weather Reports


Display with metric or nautical units.
time (UTC)temp
F
wind
direction
speed
MPH
gust
MPH
rain 1hr
in
rain 24hr
in
rain mn
in
humidity
%
barometer
mb
20260505060009 37 137 0.0 0.0 0.00 0.00 0.00 65 1016.7
20260505054518 37 39 0.0 0.0 0.00 0.00 0.00 65 1016.6
20260505053001 38 200 0.0 0.0 0.00 0.00 0.00 64 1016.5
20260505051559 39 217 0.0 0.0 0.00 0.00 0.00 62 1016.1
20260505041544 41 68 0.0 8.0 0.00 0.00 0.00 57 1015.2
20260505040040 43 326 8.0 19.0 0.00 0.00 0.00 53 1014.8
20260505034535 44 146 2.0 13.0 0.00 0.00 0.00 53 1014.5
20260505033035 45 246 0.0 0.0 0.00 0.00 0.00 51 1013.9
20260505031525 46 252 0.0 3.0 0.00 0.00 0.00 49 1013.5
20260505030022 47 293 4.0 14.0 0.00 0.00 0.00 47 1013.2
20260505024545 48 326 0.0 0.0 0.00 0.00 0.00 42 1012.7
20260505023015 49 278 0.0 0.0 0.00 0.00 0.00 41 1012.4
20260505021528 49 163 0.0 0.0 0.00 0.00 0.00 40 1012.3
20260505020011 50 165 0.0 13.0 0.00 0.00 0.00 38 1012.2
20260505014510 51 345 0.0 0.0 0.00 0.00 0.00 36 1011.8
20260505013008 52 355 0.0 7.0 0.00 0.00 0.00 34 1011.7
20260505011508 52 326 0.0 7.0 0.00 0.00 0.00 35 1011.5
20260505010007 53 184 2.0 13.0 0.00 0.00 0.00 34 1011.5
20260505004513 53 197 8.0 17.0 0.00 0.00 0.00 34 1011.4
20260505003003 53 143 0.0 18.0 0.00 0.00 0.00 37 1011.5
20260505001503 53 7 7.0 21.0 0.00 0.00 0.00 35 1011.3
20260505000002 53 176 4.0 13.0 0.00 0.00 0.00 36 1011.3
20260504234501 54 97 4.0 14.0 0.00 0.00 0.00 37 1011.1
20260504233003 55 349 4.0 13.0 0.00 0.00 0.00 36 1010.8
20260504233001 55 264 4.0 13.0 0.00 0.00 0.00 36 1010.8
20260504231557 55 346 0.0 12.0 0.00 0.00 0.00 38 1010.6
20260504230103 55 75 3.0 13.0 0.00 0.00 0.00 37 1010.7
20260504224556 54 333 5.0 13.0 0.00 0.00 0.00 37 1010.5
20260504223102 54 40 0.0 9.0 0.00 0.00 0.00 40 1010.5
20260504221532 54 240 3.0 14.0 0.00 0.00 0.00 40 1010.5
20260504220025 54 119 2.0 21.0 0.00 0.00 0.00 42 1010.7
20260504214522 54 309 6.0 22.0 0.00 0.00 0.00 42 1010.7
20260504213022 54 184 5.0 21.0 0.00 0.00 0.00 42 1010.7
20260504211521 54 348 8.0 22.0 0.00 0.00 0.00 42 1010.7
20260504210022 54 173 9.0 20.0 0.00 0.00 0.00 42 1010.9
20260504204519 54 285 6.0 24.0 0.00 0.00 0.00 41 1010.9
20260504203018 54 150 6.0 20.0 0.00 0.00 0.00 42 1010.8
20260504201516 54 273 8.0 17.0 0.00 0.00 0.00 41 1010.9
20260504200017 53 246 1.0 10.0 0.00 0.00 0.00 47 1010.9
20260504194546 53 255 9.0 17.0 0.00 0.00 0.00 47 1011.1
20260504193045 52 360 5.0 21.0 0.00 0.00 0.00 47 1011.1
20260504191542 52 319 10.0 25.0 0.00 0.00 0.00 47 1011.4
20260504190041 52 59 1.0 17.0 0.00 0.00 0.00 45 1011.4
20260504184539 52 105 3.0 22.0 0.00 0.00 0.00 45 1011.5
20260504183039 52 333 14.0 23.0 0.00 0.00 0.00 44 1011.4
20260504181508 52 36 9.0 23.0 0.00 0.00 0.00 42 1011.4
20260504180008 51 349 3.0 19.0 0.00 0.00 0.00 44 1011.6
20260504174536 51 238 2.0 18.0 0.00 0.00 0.00 43 1011.6
20260504173036 51 297 4.0 18.0 0.00 0.00 0.00 42 1011.7
20260504171534 51 86 10.0 19.0 0.00 0.00 0.00 45 1011.7
20260504160106 50 75 1.0 9.0 0.00 0.00 0.00 52 1011.9